Lapse_Rate
6.5 6.5 6.5 6.5 6.5 6.5 6.5 6.5 6.5 6.5 6.5 6.5 6.5 6.5 6.6 6.8 6.9 7.1 7.3 7.1 6.3 5.4 5.9 7.4 8.3 8.4 8.3 8.4 7.6 6.9 6.1 5.5 4.1 3.9 4.7 4.4 4.1 3.6 3.4 2.4 1.9 0.9 1.6 1.8
6.5 6.5 6.5 6.5 6.5 6.5 6.5 6.5 6.5 6.5 6.5 6.5 6.7 6.8 6.7 6.7 6.8 7.0 7.2 7.2 6.3 4.7 3.2 3.2 3.9 8.3 8.0 8.2 7.3 6.9 6.3 5.7 4.6 4.2 4.7 4.2 4.2 4.1 3.4 3.1 2.3 1.0 0.6 -0.1
6.5 6.5 6.5 6.5 6.5 6.5 6.5 6.5 6.5 6.5 6.5 6.5 6.5 6.5 6.7 6.8 6.9 6.9 7.0 6.9 6.5 5.0 2.8 2.0 1.7 3.5 8.3 7.8 7.0 6.5 6.3 5.3 4.2 4.6 4.5 4.0 4.4 4.2 3.6 2.7 1.5 0.6 0.5 0.8
6.5 6.5 6.5 6.5 6.5 6.5 6.5 6.5 6.5 6.5 6.5 6.5 6.6 7.0 7.1 7.1 6.9 6.9 6.9 6.7 6.3 4.7 2.4 1.8 1.7 2.1 3.1 6.6 6.2 6.2 5.3 4.6 4.6 4.1 4.2 4.0 3.8 3.8 3.4 3.0 2.2 1.3 0.7 0.7
6.5 6.5 6.5 6.5 6.5 6.5 6.5 6.5 6.5 6.5 6.5 6.7 6.9 6.9 6.8 7.1 7.0 7.0 7.1 6.1 5.2 4.3 2.5 1.6 1.5 1.8 2.6 5.7 5.9 5.5 5.0 4.5 4.5 5.2 4.3 4.1 3.3 3.3 3.6 2.7 2.1 1.1 1.3 1.3
6.5 6.5 6.5 6.5 6.5 7.1 6.6 6.5 6.6 6.7 6.5 6.6 6.9 6.5 6.5 7.1 7.3 7.1 6.7 5.4 3.9 3.5 2.0 0.7 0.2 1.4 3.9 5.9 5.8 5.8 5.1 4.6 4.9 4.6 4.0 3.8 3.5 3.0 2.6 2.7 1.9 1.2 1.0 2.4
6.5 6.5 6.5 6.5 6.9 7.2 6.5 6.5 7.1 7.0 6.9 7.0 6.5 6.8 7.3 7.6 7.5 6.8 6.4 5.5 4.5 3.5 1.7 0.7 0.0 1.0 1.2 4.1 3.8 5.3 5.4 4.9 4.7 4.6 3.8 4.1 3.2 2.8 2.6 2.3 1.3 1.1 0.8 1.2
6.5 6.5 6.5 7.1 6.8 6.5 6.7 7.3 7.2 7.3 7.2 7.1 7.3 7.5 7.5 7.7 7.4 6.7 5.7 5.0 3.7 3.1 2.4 0.9 -0.5 -0.8 -1.0 -1.0 -1.4 1.5 4.6 3.4 2.4 2.5 2.6 2.1 1.7 1.2 0.6 -0.3 0.0 0.2 1.0 1.1
6.5 6.5 6.9 7.4 7.1 7.7 7.8 7.4 7.3 7.3 7.3 7.2 7.3 7.5 7.8 8.0 7.8 7.5 6.3 5.6 4.7 3.5 2.1 1.2 -0.1 -1.4 -1.6 -2.4 -1.9 0.8 1.9 1.2 0.5 0.4 0.5 0.4 -0.8 -1.6 -1.2 -1.0 -1.0 -0.4 0.8 1.0
6.5 6.6 6.9 7.4 7.7 8.0 8.1 7.7 7.8 7.6 7.6 7.8 7.4 7.6 7.7 7.9 7.7 7.4 6.5 5.5 5.0 3.6 2.5 1.5 0.7 -0.7 -1.9 -2.3 -2.4 -1.5 -0.4 -0.9 -1.0 -1.0 -1.6 -1.5 -0.9 -0.7 -0.8 -0.4 0.3 0.5 0.3 1.0
6.5 6.8 7.2 7.4 7.7 8.0 7.9 7.9 7.9 8.1 7.9 7.5 7.7 7.8 7.7 7.8 7.8 7.8 6.7 5.4 5.0 4.0 3.1 2.4 1.8 0.7 -0.6 -1.4 -1.6 -1.5 -1.7 -1.8 -1.5 -1.0 -1.4 -1.4 -0.9 -0.4 -0.4 -0.6 0.8 0.4 0.2 -1.3
6.5 7.2 7.1 7.3 7.9 7.2 7.6 7.5 7.5 7.6 7.7 7.9 7.3 7.6 7.9 7.8 7.8 7.3 6.0 5.2 4.6 4.3 3.6 3.2 2.6 1.6 0.7 -0.0 -0.2 0.1 -0.9 -1.6 -1.6 -1.4 -0.8 0.0 0.2 0.3 1.7 1.1 2.8 1.8 1.2 0.3
7.1 7.9 7.8 7.2 6.5 7.4 7.6 7.8 7.8 7.6 7.2 7.0 6.9 7.1 7.1 6.9 7.0 6.3 5.9 5.2 4.9 4.4 4.1 3.8 3.3 3.0 2.2 1.4 0.9 1.2 1.2 0.6 -0.2 -0.4 0.4 0.6 1.1 1.6 1.4 3.2 3.4 2.4 2.6 2.0
6.6 6.5 7.3 7.7 7.4 6.5 7.8 7.3 7.0 6.7 6.5 6.7 6.6 6.7 6.6 6.3 5.9 5.6 5.2 5.2 5.1 4.9 4.4 4.2 3.8 3.4 3.6 2.9 2.4 1.4 1.6 2.0 1.1 1.2 1.0 1.0 1.4 1.2 1.2 2.2 2.1 3.0 3.5 3.2
6.2 7.0 6.5 6.2 6.8 7.2 6.9 6.7 6.9 6.5 6.6 6.4 6.3 6.2 6.4 6.1 5.9 5.5 5.2 5.1 6.1 5.5 4.7 4.5 4.3 3.6 3.8 3.9 3.2 2.6 2.6 2.6 1.4 1.3 2.0 2.1 2.3 2.0 2.5 2.6 2.7 3.4 4.7 4.8
5.3 5.7 6.1 6.4 6.5 6.3 6.3 6.3 6.6 6.4 6.5 6.4 6.3 6.3 6.3 6.4 6.2 5.9 5.5 5.3 5.0 5.3 5.4 5.0 4.8 4.5 3.9 3.7 3.8 3.9 3.8 4.0 3.7 3.5 3.6 3.1 3.2 3.4 3.8 4.1 4.5 5.0 5.4 5.5
6.0 6.1 6.0 6.3 6.2 6.1 6.0 5.9 5.9 6.2 6.4 6.2 6.1 6.0 6.1 6.4 6.6 6.1 5.9 5.6 5.5 5.0 5.7 5.7 5.3 4.8 4.4 4.0 4.2 4.5 4.6 4.7 4.7 4.5 4.8 4.7 4.7 4.8 5.0 5.4 5.5 5.3 5.0 4.9
6.2 6.1 6.5 6.4 6.2 6.1 5.9 6.0 6.0 6.1 6.2 6.4 6.0 5.9 5.7 6.0 6.5 6.2 5.9 5.7 5.7 5.5 5.2 5.9 5.6 5.0 4.7 4.5 4.5 4.4 4.4 4.4 4.4 4.3 4.3 4.2 4.1 4.2 4.5 4.5 4.8 5.0 5.0 4.7
5.9 6.0 6.0 5.9 5.7 5.7 5.5 5.7 5.8 6.0 5.6 5.8 6.1 6.3 6.1 5.9 6.4 6.5 5.7 5.7 5.7 5.8 5.5 5.1 5.3 5.3 5.0 4.6 4.1 4.5 4.9 4.8 4.8 4.8 4.8 4.6 4.2 4.1 4.1 4.3 4.2 4.0 3.7 3.4
5.9 5.8 5.8 5.6 5.5 5.4 5.3 5.6 6.0 6.2 6.2 6.1 6.3 6.3 6.1 5.7 5.6 5.9 5.7 5.7 5.6 5.7 5.1 4.7 4.3 4.3 4.6 4.6 4.3 4.2 4.0 3.9 3.9 3.9 3.9 3.7 3.6 3.6 3.5 3.4 3.1 3.0 3.0 2.9
5.9 5.8 5.8 5.8 5.7 5.7 5.7 6.0 6.3 6.2 6.0 5.9 6.4 6.3 6.2 6.1 5.8 5.8 5.3 5.4 5.3 4.5 4.4 4.3 3.9 3.9 3.8 3.3 3.2 3.3 3.4 3.4 3.4 3.4 3.2 3.0 2.8 2.8 2.8 2.8 2.8 2.8 2.7 2.7
6.2 6.0 5.8 5.9 5.9 5.6 5.5 5.5 5.6 5.6 5.6 5.7 5.6 5.6 5.6 5.6 6.4 6.0 5.7 5.3 5.2 5.0 4.6 4.1 3.8 3.7 3.1 2.5 2.2 2.2 2.3 2.5 2.7 2.8 2.8 2.8 2.7 2.6 2.6 2.6 2.3 2.3 2.2 2.3
6.0 6.0 5.8 5.7 5.6 5.7 5.5 5.1 5.2 5.1 5.2 5.2 5.3 5.2 5.1 4.8 4.6 4.7 4.9 5.8 5.3 4.8 4.1 4.4 4.2 3.4 2.5 1.6 1.7 1.7 1.5 1.5 1.6 1.7 1.7 1.8 1.9 1.9 1.9 1.8 1.7 1.7 1.9 2.0
5.6 5.7 5.4 5.3 5.3 5.5 5.3 5.1 5.2 5.0 5.0 5.1 5.5 5.2 4.8 5.2 4.3 4.2 4.9 4.7 4.5 4.5 4.6 4.2 3.9 3.2 1.9 1.4 1.3 1.0 1.0 0.9 1.2 1.4 1.6 1.3 0.9 1.0 1.2 1.3 1.6 2.1 2.0 2.0
4.6 4.7 4.9 5.2 5.5 5.2 5.0 5.2 5.3 5.0 5.2 5.1 4.9 4.7 4.4 4.5 4.2 4.2 3.9 4.3 4.5 3.3 3.1 4.1 3.4 2.4 1.1 1.0 1.1 1.3 1.1 0.8 0.5 0.5 0.7 0.7 1.0 1.3 1.4 1.5 1.5 1.6 1.7 2.1
4.6 5.0 4.9 4.5 4.7 5.3 5.1 5.2 5.1 5.1 4.9 4.7 4.4 4.6 4.7 4.7 4.7 3.7 4.3 4.0 3.6 3.2 2.9 3.2 2.3 1.7 1.4 1.0 0.7 0.5 0.6 1.1 0.8 0.8 0.4 0.4 0.6 0.9 0.9 1.6 1.5 1.5 1.5 1.2
5.1 5.3 5.0 5.1 4.9 4.8 5.7 5.5 5.1 4.8 4.8 4.7 4.3 4.2 4.3 4.1 4.3 3.7 3.7 3.5 3.0 2.5 2.4 2.5 2.6 2.7 2.0 1.7 1.5 1.4 1.7 1.4 0.8 0.3 0.2 0.1 0.2 0.4 0.4 0.5 0.4 0.3 0.0 -0.1
Wind_Speed
20 13 6 15 20 17 13 16 10 20 17 22 28 25 20 18 20 19 19 17 14 11 8 2 13 14 16 17 18 19 18 17 16 14 14 14 15 15 14 15 14 14 13 11
5 4 3 9 22 18 15 17 17 20 16 23 23 22 14 24 22 20 18 17 15 13 11 10 8 12 15 16 15 16 16 16 14 14 13 14 14 15 15 15 16 14 12 12
5 12 7 3 20 17 16 9 18 19 23 24 27 25 17 24 24 20 17 15 14 12 10 9 8 7 14 15 13 13 14 14 14 14 14 13 14 16 16 17 16 15 13 13
6 13 1 6 16 14 15 5 21 21 22 22 24 24 16 20 20 18 17 14 13 11 11 10 8 6 4 10 13 12 13 14 14 15 14 14 14 14 15 13 16 14 14 13
5 6 1 1 17 18 14 4 20 21 21 22 25 19 8 21 18 14 14 12 12 11 11 9 9 7 3 8 13 14 13 14 14 15 15 15 14 14 13 12 11 12 12 13
5 4 4 5 26 24 16 5 27 25 23 23 20 14 13 24 20 16 13 14 15 14 12 12 12 10 2 6 11 12 14 14 15 15 15 15 14 14 12 12 12 9 10 10
8 3 1 12 19 21 9 11 26 24 22 22 18 13 17 21 21 19 17 17 16 13 13 13 12 10 10 8 5 4 10 12 11 12 12 12 12 12 12 12 11 11 10 9
5 5 5 19 8 9 10 18 19 19 20 19 19 19 19 19 20 20 20 20 19 14 13 13 14 11 9 9 7 3 12 10 10 10 8 9 12 9 11 12 12 12 12 10
3 4 11 11 9 10 16 17 17 19 20 17 18 19 20 18 19 17 18 16 15 13 13 13 13 12 10 10 8 1 10 10 9 9 9 10 12 12 9 10 10 10 10 10
6 3 11 17 3 16 18 19 19 18 18 17 16 16 17 16 16 15 15 14 13 13 13 13 13 12 10 9 7 6 9 9 9 11 9 8 7 8 9 9 10 10 10 9
7 5 16 4 17 18 21 20 19 17 15 15 16 15 14 13 14 14 13 13 12 12 11 12 11 11 10 9 6 7 7 8 9 8 9 9 6 7 7 4 8 11 10 13
3 11 9 16 18 23 19 19 17 14 15 14 12 12 13 11 11 12 13 13 12 12 12 12 11 11 11 9 6 6 7 6 7 8 7 7 8 9 15 14 12 15 14 11
6 12 16 20 18 16 16 17 15 12 11 12 13 11 11 12 13 14 12 12 12 11 11 11 11 10 11 9 7 8 7 7 8 9 8 8 8 9 12 12 19 21 21 22
10 9 9 7 11 18 15 13 12 10 10 10 10 11 11 10 11 12 12 11 10 10 10 11 11 11 9 8 8 9 8 13 6 7 7 7 7 8 9 11 11 9 19 19
3 8 12 15 14 11 11 10 10 10 10 10 8 8 9 10 10 11 11 10 9 10 12 11 11 12 10 8 8 9 7 7 8 8 7 9 8 8 8 10 10 10 11 16
13 11 8 8 9 9 9 10 10 9 9 8 8 10 9 9 9 10 10 11 13 12 11 11 11 10 10 9 9 8 10 17 12 8 8 8 8 9 9 9 10 11 10 10
7 7 9 9 8 8 7 7 7 8 8 8 9 9 10 11 11 12 11 11 11 12 12 11 10 9 10 10 10 7 7 9 16 10 9 9 8 9 8 9 9 9 9 11
6 7 6 6 6 7 7 8 8 9 9 8 9 10 11 12 12 11 11 10 11 12 13 11 10 10 10 10 10 8 9 9 9 10 9 10 11 10 10 10 11 11 11 12
5 5 5 6 6 5 5 7 7 7 8 9 10 10 10 11 10 9 10 13 12 13 12 11 17 13 11 14 11 9 10 11 11 10 10 15 11 10 10 10 11 10 10 9
5 5 5 6 6 6 6 6 6 7 8 10 9 9 12 12 11 10 11 14 12 9 10 11 10 11 11 13 15 9 10 11 10 10 9 10 10 10 10 14 11 9 9 8
5 5 6 6 6 6 7 7 7 9 10 10 9 9 8 9 12 13 12 10 14 13 13 16 10 8 7 10 11 9 9 10 10 9 9 9 10 9 9 9 9 8 8 8
5 5 5 5 5 7 8 8 9 9 9 9 10 9 10 12 10 11 13 10 8 18 10 9 8 15 11 16 8 9 9 9 8 8 8 8 8 8 8 8 8 7 7 7
3 4 3 5 6 5 7 8 8 8 8 9 9 9 9 8 8 8 9 12 9 14 9 9 16 20 19 9 8 9 10 10 9 8 8 8 8 8 7 8 7 8 7 7
2 3 4 4 4 6 7 7 6 6 7 8 10 10 8 6 8 7 8 12 17 16 12 12 16 21 18 8 9 9 9 9 8 8 8 12 7 7 7 7 7 7 7 8
4 4 4 4 4 3 4 3 3 5 6 7 8 8 9 7 6 6 7 8 16 12 10 18 20 20 9 9 9 10 9 8 7 8 8 8 7 7 7 7 6 6 6 8
3 2 2 4 3 2 2 2 3 3 3 4 5 5 6 6 6 6 7 9 9 12 9 8 8 9 8 9 9 9 8 8 8 8 7 7 6 6 6 6 8 7 7 6
2 3 1 1 2 3 2 3 3 4 4 4 4 4 5 5 7 7 8 7 8 8 7 6 9 10 9 8 8 10 10 11 11 9 9 8 8 7 7 6 6 5 4 4
Wind_Direction
314 290 148 41 6 357 358 8 16 327 331 345 342 341 344 346 354 8 20 30 35 39 48 198 184 173 167 167 170 170 167 168 165 160 162 161 162 160 159 165 170 167 161 166
296 314 236 41 9 0 359 4 359 352 352 341 333 340 347 359 1 5 6 14 20 24 31 34 10 182 168 168 167 168 169 167 158 159 162 164 163 163 159 162 162 156 158 157
297 333 317 350 5 350 343 20 14 7 329 330 341 346 352 354 359 358 351 357 12 11 19 14 2 344 172 164 155 165 162 160 157 157 162 163 162 164 164 164 160 162 162 165
299 316 41 105 10 341 342 36 16 351 338 338 338 334 332 357 350 344 345 350 3 12 10 7 354 3 4 150 153 159 159 157 156 161 164 160 159 164 164 161 167 164 164 167
322 315 359 17 351 345 339 319 15 346 338 341 338 328 342 351 346 339 338 342 358 5 7 5 6 348 330 172 161 160 156 155 160 164 161 160 162 161 162 161 159 162 164 159
327 314 349 3 334 329 309 238 0 342 338 337 334 359 347 342 344 338 348 3 4 4 7 15 2 344 286 157 161 163 160 158 160 161 161 163 160 158 157 158 151 143 145 156
349 329 116 358 341 322 26 319 329 330 332 332 346 337 323 336 348 353 359 2 6 10 17 10 2 10 35 74 73 142 145 145 149 154 155 152 147 147 147 146 138 141 136 143
330 344 356 8 355 25 320 317 320 324 326 324 333 333 341 348 353 356 358 1 2 7 13 9 13 19 33 35 340 337 129 122 124 131 131 136 135 136 134 136 135 135 132 130
295 319 336 339 314 338 335 326 325 321 317 336 334 342 345 347 354 359 1 359 358 2 5 10 12 17 24 356 345 346 119 125 122 115 128 135 133 132 129 133 136 139 142 140
316 79 318 320 322 339 332 329 322 319 331 338 340 347 348 349 352 355 0 360 358 4 9 10 7 10 10 356 358 53 118 119 124 124 117 117 128 140 141 148 146 148 145 145
267 308 327 150 342 331 327 324 323 332 344 342 341 346 350 353 353 357 359 357 2 6 3 4 3 11 8 4 21 64 82 109 112 119 123 118 112 136 142 120 162 158 162 150
295 328 302 292 313 317 319 323 333 341 343 347 348 346 351 359 360 1 3 359 5 5 3 1 8 12 8 8 27 79 80 93 109 112 110 117 119 107 94 105 129 119 128 134
272 301 298 289 299 303 323 329 336 347 343 347 351 357 3 6 5 8 8 4 5 1 359 1 11 21 12 6 22 60 91 97 104 102 113 122 120 124 122 108 118 122 129 127
277 287 293 314 313 318 323 333 340 348 352 348 355 4 11 13 7 13 7 356 2 6 9 11 13 23 15 17 39 59 70 77 92 103 109 106 107 111 115 132 126 124 127 131
268 298 278 287 300 324 338 346 358 360 357 359 0 4 6 10 11 9 4 360 7 19 17 17 19 15 12 31 51 65 76 78 76 84 91 102 108 112 111 116 117 120 126 125
307 305 307 313 327 341 347 352 2 357 356 359 10 14 11 19 19 18 12 14 24 19 16 18 21 14 18 28 45 64 76 85 91 94 96 96 101 100 105 111 117 116 121 124
309 329 335 335 341 343 345 346 354 351 352 4 12 11 19 27 29 24 19 14 22 21 15 27 26 23 30 37 50 52 69 79 86 84 86 87 90 94 100 105 106 102 100 110
291 284 295 306 328 346 355 2 2 3 5 359 20 19 22 26 25 18 16 20 29 29 20 21 35 38 40 48 62 68 73 75 78 82 86 86 86 88 94 96 99 102 102 108
339 340 353 7 1 357 1 4 360 2 3 13 28 26 28 26 19 18 26 33 33 31 17 20 34 43 52 57 58 66 73 77 77 78 83 88 85 85 89 91 94 94 96 96
355 6 14 14 18 18 6 6 15 24 19 24 29 35 41 33 20 21 33 40 30 26 26 30 35 40 46 59 65 65 70 75 79 81 81 84 86 88 90 90 92 91 91 91
356 9 17 18 23 29 29 23 28 31 26 27 28 26 29 40 37 31 33 34 22 25 31 37 40 43 55 61 61 64 68 72 74 78 81 85 88 86 85 86 86 87 91 95
358 16 16 16 31 36 26 31 34 32 30 29 31 29 38 35 35 45 43 39 24 35 39 40 44 59 64 63 60 64 67 70 74 79 81 83 85 87 85 86 89 91 94 97
9 18 21 26 29 30 38 35 30 33 34 34 38 37 43 41 30 34 42 29 40 43 44 52 59 63 63 56 60 64 64 65 66 69 72 74 77 80 84 89 92 96 99 101
25 29 37 28 34 42 41 27 26 33 40 43 47 44 40 47 46 33 44 44 45 52 56 59 61 64 64 58 59 61 64 66 65 68 75 75 75 78 85 92 95 99 100 99
53 38 38 45 49 37 24 12 43 34 49 52 48 43 40 42 50 47 48 44 53 54 50 53 57 57 54 55 58 62 63 64 67 72 72 76 79 80 84 84 87 96 98 105
95 76 62 49 36 28 32 21 55 46 43 54 46 39 45 47 47 48 53 58 55 53 50 51 50 52 54 60 63 65 66 69 70 76 80 84 85 87 86 93 94 103 110 111
152 148 116 83 28 21 54 63 71 56 48 63 72 44 49 50 52 57 58 55 55 53 52 51 53 60 67 67 68 71 74 79 81 82 82 84 86 92 91 94 93 97 104 129